Location: Krakow
(50.0830°N, 19.9170°E)
Time: 13:35:56
(UTC+02:00)

Tiros 1 - Pass Details

Date: 11 February 2023
Orbit: 627 x 662 km, 48.4° (Epoch: 26 March)

Event Time Altitude Azimuth Distance (km) Brightness Sun altitude
Rises 22:36:07 0° 252° (WSW) 2,906 - -50.4°
Reaches altitude 10° 22:38:26 10° 249° (WSW) 1,999 - -50.6°
Maximum altitude 22:42:59 64° 169° (SSE) 696 - -51.0°
Drops below altitude 10° 22:47:33 10° 88° (E) 2,010 - -51.3°
Sets 22:49:54 0° 85° (E) 2,923 - -51.5°
